Perth, Australia

4:56 PM AWST on June 26, 2017 (GMT +0800)
Perth International

Weather History for YPPH - June, 2013

Change the Weather History Date:

Monday, June 10, 2013

  Actual Average Record
Temperature  
Mean Temperature 56 °F -  
Max Temperature 66 °F 65 °F 75 °F (2015)
Min Temperature 46 °F 48 °F 41 °F (2006)
Degree Days  
Heating Degree Days 9    
Growing Degree Days 6 (Base 50)    
Moisture  
Dew Point 49 °F    
Average Humidity 79    
Maximum Humidity 100    
Minimum Humidity 37    
Precipitation  
Precipitation 0.01 in 0.22 in - ()
Sea Level Pressure  
Sea Level Pressure 30.16 in    
Wind  
Wind Speed 4 mph ()    
Max Wind Speed 13 mph    
Max Gust Speed -    
Visibility 5.4 miles    
Events Fog    
Averages and records for this station are not official NWS values.
T = Trace of Precipitation, MM = Missing Value Source: Averaged Metar Reports

Daily Weather History Graph

Daily Weather History Graph

Search for Another Location

Airport or City:

Trip Planner

Search our weather history database for the weather conditions in past years. The results will help you decide how hot, cold, wet, or windy it might be!

Date:

Astronomy

Jun. 10, 2013 Rise Set
Actual Time 7:12 AM AWST 5:18 PM AWST
Civil Twilight 6:45 AM AWST 5:45 PM AWST
Nautical Twilight 6:15 AM AWST 6:15 PM AWST
Astronomical Twilight 5:45 AM AWST 6:45 PM AWST
Moon 8:10 AM AWST (6/10) 6:49 PM AWST (6/10)
Length of Visible Light 10h 59m
Length of Day
10h 06m
New Moon, 2% of the Moon is Illuminated
Jun 10
New Moon
Jun 17
First Quarter
Jun 23
Full
Jun 30
Last Quarter
Jul 8
New

Hourly Weather History & Observations

Time (AWST) Temp. Windchill Dew Point Humidity Pressure Visibility Wind Dir Wind Speed Gust Speed Precip Events Conditions
12:00 AM 55 °F - 54 °F 96% 30.06 in 0 mi East 3.5 mph - - Fog Partial Fog
12:00 AM 55.4 °F - 53.6 °F 94% 30.04 in 0.1 mi East 3.5 mph - N/A Fog Fog
12:30 AM 55.4 °F - 53.6 °F 94% 30.06 in 0.0 mi East 5.8 mph - N/A Fog Fog
1:00 AM 55.4 °F - 55.4 °F 100% 30.06 in 0.0 mi East 4.6 mph - N/A Fog Fog
1:30 AM 55.4 °F - 55.4 °F 100% 30.06 in 0.0 mi East 5.8 mph - N/A Fog Fog
2:00 AM 56 °F - 56 °F 98% 30.07 in - East 5.8 mph - -  
2:00 AM 55.4 °F - 55.4 °F 100% 30.06 in 0.0 mi East 5.8 mph - N/A Fog Fog
2:30 AM 55.4 °F - 55.4 °F 100% 30.06 in - East 4.6 mph - N/A Fog Fog
3:00 AM 54 °F - 54 °F 99% 30.08 in 0 mi Calm Calm - - Fog Heavy Fog
3:00 AM 53.6 °F - 53.6 °F 100% 30.06 in 0.0 mi Calm Calm - N/A Fog Fog
3:30 AM 53.6 °F - 53.6 °F 100% 30.06 in 0.0 mi East 3.5 mph - N/A Fog Fog
4:00 AM 51.8 °F - 51.8 °F 100% 30.06 in - East 4.6 mph - N/A Fog Fog
4:30 AM 51.8 °F - 50.0 °F 94% 30.06 in 0.1 mi Calm Calm - N/A Fog Fog
5:00 AM 51 °F - 51 °F 99% 30.09 in - East 3.5 mph - -  
5:00 AM 50.0 °F - 50.0 °F 100% 30.09 in - East 3.5 mph - N/A Fog Fog
5:30 AM 50.0 °F - 50.0 °F 100% 30.09 in 0.0 mi Calm Calm - N/A Fog Fog
6:00 AM 49 °F - 49 °F 98% 30.11 in 0 mi East 1.2 mph - - Fog Heavy Fog
6:00 AM 48.2 °F - 48.2 °F 100% 30.09 in 0.0 mi East 1.2 mph - N/A Fog Fog
6:24 AM 50.0 °F - 48.2 °F 94% 30.12 in 2.5 mi SE 3.5 mph - N/A Fog Fog
6:30 AM 50.0 °F - 48.2 °F 94% 30.12 in 2.5 mi SE 3.5 mph - N/A Fog Fog
7:00 AM 48.2 °F - 48.2 °F 100% 30.12 in 3.1 mi East 4.6 mph - N/A Fog Patches of Fog
7:25 AM 50.0 °F - 50.0 °F 100% 30.15 in 6.2 mi Calm Calm - N/A Fog Partly Cloudy
7:30 AM 50.0 °F - 50.0 °F 100% 30.15 in 6.2 mi Calm Calm - N/A Fog Partly Cloudy
7:59 AM 51.8 °F - 50.0 °F 94% 30.15 in - Calm Calm - N/A   Clear
8:00 AM 52 °F - 50 °F 92% 30.16 in - Calm Calm - -  
8:00 AM 51.8 °F - 50.0 °F 94% 30.15 in - Calm Calm - N/A   Clear
8:30 AM 55.4 °F - 53.6 °F 94% 30.15 in - South 1.2 mph - N/A   Clear
9:00 AM 58 °F - 52 °F 76% 30.19 in 12 mi East 3.5 mph - -   Partly Cloudy
9:00 AM 59.0 °F - 51.8 °F 77% 30.18 in 6.2 mi East 3.5 mph - N/A   Partly Cloudy
9:30 AM 59.0 °F - 51.8 °F 77% 30.18 in 6.2 mi East 3.5 mph - N/A   Partly Cloudy
10:00 AM 60.8 °F - 51.8 °F 72% 30.21 in 6.2 mi ENE 8.1 mph - N/A   Partly Cloudy
10:30 AM 60.8 °F - 51.8 °F 72% 30.21 in 6.2 mi East 5.8 mph - N/A   Partly Cloudy
11:00 AM 63 °F - 50 °F 54% 30.22 in - East 5.8 mph - -  
11:00 AM 62.6 °F - 50.0 °F 63% 30.21 in 6.2 mi East 5.8 mph - N/A   Partly Cloudy
11:30 AM 64.4 °F - 48.2 °F 56% 30.18 in 6.2 mi SE 8.1 mph - N/A   Partly Cloudy
12:00 PM 65 °F - 46 °F 39% 30.19 in 19 mi SE 6.9 mph - -   Partly Cloudy
12:00 PM 64.4 °F - 46.4 °F 52% 30.18 in 6.2 mi SE 6.9 mph - N/A   Partly Cloudy
12:30 PM 66.2 °F - 46.4 °F 49% 30.15 in 6.2 mi SSE 10.4 mph - N/A   Partly Cloudy
1:00 PM 66.2 °F - 48.2 °F 52% 30.15 in 6.2 mi ESE 12.7 mph - N/A   Partly Cloudy
1:30 PM 66.2 °F - 46.4 °F 49% 30.15 in 6.2 mi ESE 8.1 mph - N/A   Partly Cloudy
2:00 PM 66 °F - 46 °F 37% 30.17 in - East 9.2 mph - -  
2:00 PM 66.2 °F - 46.4 °F 49% 30.15 in 6.2 mi East 9.2 mph - N/A   Partly Cloudy
2:30 PM 66.2 °F - 46.4 °F 49% 30.15 in 6.2 mi ESE 8.1 mph - N/A   Partly Cloudy
3:00 PM 66 °F - 46 °F 37% 30.18 in 19 mi ESE 8.1 mph - -   Partly Cloudy
3:00 PM 66.2 °F - 46.4 °F 49% 30.15 in 6.2 mi ESE 8.1 mph - N/A   Partly Cloudy
3:30 PM 66.2 °F - 46.4 °F 49% 30.18 in 6.2 mi East 10.4 mph - N/A   Partly Cloudy
4:00 PM 64.4 °F - 46.4 °F 52% 30.18 in 6.2 mi ENE 9.2 mph - N/A   Partly Cloudy
4:30 PM 64.4 °F - 44.6 °F 49% 30.18 in 6.2 mi ESE 11.5 mph - N/A   Partly Cloudy
5:00 PM 62 °F - 45 °F 43% 30.20 in - East 9.2 mph - -  
5:00 PM 60.8 °F - 44.6 °F 55% 30.18 in 6.2 mi East 9.2 mph - N/A   Partly Cloudy
5:30 PM 57.2 °F - 48.2 °F 72% 30.18 in 6.2 mi ESE 8.1 mph - N/A   Partly Cloudy
6:00 PM 56 °F - 47 °F 63% 30.22 in 19 mi ESE 8.1 mph - -   Partly Cloudy
6:00 PM 55.4 °F - 46.4 °F 72% 30.21 in 6.2 mi ESE 8.1 mph - N/A   Partly Cloudy
6:30 PM 53.6 °F - 46.4 °F 77% 30.21 in 6.2 mi SE 8.1 mph - N/A   Partly Cloudy
7:00 PM 51.8 °F - 46.4 °F 82% 30.21 in 6.2 mi SE 5.8 mph - N/A   Partly Cloudy
7:30 PM 51.8 °F - 46.4 °F 82% 30.24 in - SSE 6.9 mph - N/A   Clear
8:00 PM 51 °F - 46 °F 76% 30.25 in - SSE 6.9 mph - -  
8:00 PM 50.0 °F - 46.4 °F 87% 30.24 in - SSE 6.9 mph - N/A   Clear
8:30 PM 48.2 °F - 44.6 °F 87% 30.24 in - SSE 6.9 mph - N/A   Clear
9:00 PM 48 °F - 45 °F 87% 30.26 in 19 mi East 4.6 mph - -   Partly Cloudy
9:00 PM 48.2 °F - 44.6 °F 87% 30.24 in - East 4.6 mph - N/A   Clear
9:30 PM 46.4 °F 45.2 °F 44.6 °F 93% 30.24 in - ENE 3.5 mph - N/A   Clear
10:00 PM 46.4 °F 43.5 °F 44.6 °F 93% 30.24 in - NNE 5.8 mph - N/A   Clear
10:30 PM 48.2 °F - 44.6 °F 87% 30.24 in - East 4.6 mph - N/A   Clear
11:00 PM 46 °F - 44 °F 89% 30.26 in - NNW 2.3 mph - -  
11:00 PM 46.4 °F - 44.6 °F 93% 30.24 in - NNW 2.3 mph - N/A   Clear
11:30 PM 46.4 °F - 42.8 °F 87% 30.24 in - Calm Calm - N/A   Clear